星链-33994 (STARLINK-33994)

导读 | 豆包AI

STARLINK-33994是美国太空探索技术公司(SpaceX)于2025年5月13日发射的星链(Starlink)系列卫星,属于全球最大低轨卫星互联网星座的组成部分。星链计划旨在为全球偏远地区提供低延迟高速宽带服务,该卫星预计运行在数百公里高度的近地轨道,承担地面网络覆盖补盲、应急通信等功能,进一步扩充星链星座的服务能力,推动全球卫星互联网普及。

Basic Information
目录编号:
63931
目录名称:
STARLINK-33994
国际标识:
2025-098F
轨道中心:
EARTH
卫星名称:
星链-33994
卫星全名:
星链-33994 (STARLINK-33994)
卫星状态:
在轨 (已飞行351 天)
发射日期:
2025-05-13 UTC
国别 :
美国 (US)
星等 :
--
Orbit Information
数据来源 国际轨道数据 AOE轨道数据
星历时间 2026-04-29T20:08:13+0800
8小时前
查看轨道信息
2026-04-29T06:00:00+0800
22小时前
查看轨道信息
半长轴 6950.225km 6950.158km
偏心率 0.0002942 0.0002211
轨道倾角 70.001° 69.999°
近地点辐角 268.163° 264.384°
升交点赤经 146.357° 147.840°
平近点角 91.919° 159.362°
近地点 570.043km 570.484km
远地点 574.133km 573.558km
周期 96.108分钟 96.106分钟
每日圈数 14.983198 14.983413
Detailed Information
固有亮度:
5
最大亮度:
2.5
卫星平台:
Starlink V1.0
覆盖范围:
全球
运营商:
太空探索技术公司
运营商所在国:
美国
制造商(研发单位):
太空探索技术公司
制造商所在国:
美国
使用方式:
暂无
Satellite Introduction
Starlink 计划是 SpaceX 推出的全球卫星互联网项目,通过发射低轨道卫星,为全球尤其是偏远地区提供高速、低延迟的互联网服务。自 2019 年起,Starlink 已部署数千颗卫星,旨在缩小全球数字鸿沟,推动互联网普及。该项目还为军事、航空等行业提供通信支持,带来广泛经济效益。
2D Orbit Map
3D Orbit Map
Orbit Altitude Analysis Chart
Orbit Inclination Analysis Chart
Orbit Comprehensive Analysis Chart
View Comprehensive Chart